Home   Weather   Lugano   Past weeks
Flag for Switzerland

Past Weather in Lugano, Switzerland — Yesterday and Last 2 Weeks

Now
59 °F

Heavy rain. Fog.


Feels Like: 59 °F
Forecast: 65 / 48 °F
Wind: 2 mph from North

Location: Lugano Airport

Current Time: Oct 15, 2019 at 3:57:23 pm

Latest Report: Oct 15, 2019 at 3:20 pm


Visibility: 2 mi

Pressure: 29.80 "Hg

Humidity: 100%

Dew Point: 59 °F

Location of LuganoLocation

Past Weather in Lugano — Graph

°F

Lugano Temperature Yesterday

Maximum temperature yesterday: 66 °F (at 2:50 pm)
Minimum temperature yesterday: 46 °F (at 4:50 am)
Average temperature yesterday: 57 °F

High & Low Weather Summary for the Past Weeks

 TemperatureHumidityPressure
High81 °F (Sep 30, 4:20 pm)100% (Oct 1, 10:20 pm)30.30 "Hg (Oct 1, 10:20 pm)
Low43 °F (Oct 5, 7:20 am)19% (Oct 3, 11:50 am)29.62 "Hg (Oct 2, 2:50 pm)
Average57 °F82%30.01 "Hg
* Reported Sep 30 2:20 pm — Oct 15 2:20 pm, Lugano. Weather by CustomWeather, © 2019

Note: Actual official high and low records may vary slightly from our data, if they occured in-between our weather recording intervals... More about our weather records

Advertising

Lugano Weather History for the Previous 24 Hours

Scroll right to see more
 ConditionsComfort  
Time TempWeatherWind HumidityBarometerVisibility
2:20 pm
Tue, Oct 15
59 °FRain. Fog.3 mph100%29.83 "Hg2 mi
1:50 pm59 °FRain. Fog.1 mph100%29.83 "Hg2 mi
1:20 pm59 °FRain. Fog.5 mph100%29.86 "Hg2 mi
12:50 pm59 °FHeavy rain. Fog.3 mph100%29.89 "Hg2 mi
12:20 pm61 °FLight rain. Mostly cloudy.1 mph94%29.92 "Hg4 mi
11:50 am61 °FRain. Cloudy.2 mph100%29.92 "Hg4 mi
11:20 am59 °FLight rain. More clouds than sun.3 mph100%29.92 "Hg6 mi
10:50 am59 °FScattered showers. More clouds than sun.3 mph100%29.92 "Hg6 mi
10:20 am59 °FScattered showers. Mostly cloudy.5 mph100%29.95 "Hg4 mi
9:50 am59 °FScattered showers. Mostly cloudy.2 mph100%29.98 "Hg4 mi
9:20 am59 °FScattered showers. Mostly cloudy.2 mph100%29.98 "Hg4 mi
8:50 am57 °FScattered showers. Mostly cloudy.2 mph100%29.98 "Hg4 mi
8:20 am57 °FFog.2 mph100%29.98 "Hg2 mi
7:50 am57 °FBroken clouds.1 mph100%29.98 "Hg4 mi
7:20 am57 °FPartly cloudy.3 mph100%29.98 "Hg6 mi
6:50 am57 °FLight rain. Partly cloudy.6 mph100%30.01 "Hg3 mi
6:20 am57 °FLight rain. Overcast.3 mph100%30.01 "HgN/A
5:50 am57 °FLight rain. Overcast.1 mph100%30.01 "HgN/A
5:20 am57 °FMostly cloudy.2 mph100%30.04 "HgN/A
4:50 am57 °FOvercast.2 mph100%30.04 "HgN/A
4:20 am57 °FPartly cloudy.3 mph100%30.04 "HgN/A
3:50 am57 °FMostly cloudy.6 mph100%30.04 "HgN/A
3:20 am57 °FPartly cloudy.3 mph100%30.07 "HgN/A
2:50 am57 °FOvercast.6 mph100%30.07 "HgN/A
2:20 am57 °FPassing clouds.2 mph100%30.09 "HgN/A
1:50 am57 °FPartly cloudy.2 mph100%30.09 "HgN/A
1:20 am57 °FOvercast.2 mph100%30.09 "HgN/A
12:50 am57 °FOvercast.2 mph100%30.09 "HgN/A
12:20 am57 °FOvercast.1 mph100%30.09 "HgN/A
11:50 pm
Mon, Oct 14
59 °FOvercast.1 mph94%30.12 "HgN/A
11:20 pm59 °FOvercast.3 mph94%30.12 "HgN/A
10:50 pm59 °FPassing clouds.2 mph94%30.12 "HgN/A
10:20 pm59 °FMostly cloudy.1 mph94%30.12 "HgN/A
9:50 pm59 °FPassing clouds.2 mph94%30.12 "HgN/A
9:20 pm59 °FPassing clouds.1 mph94%30.12 "HgN/A
8:50 pm57 °FPassing clouds.1 mph100%30.12 "HgN/A
8:20 pm59 °FPassing clouds.1 mph94%30.12 "HgN/A
7:50 pm59 °FPassing clouds.1 mph94%30.12 "HgN/A
7:20 pm61 °FPassing clouds.1 mph88%30.12 "HgN/A
6:50 pm61 °FPassing clouds.1 mph88%30.12 "HgN/A
6:20 pm63 °FPartly sunny.1 mph83%30.12 "HgN/A
5:50 pm64 °FPartly sunny.2 mph73%30.12 "HgN/A
5:20 pm66 °FPartly sunny.1 mph64%30.12 "HgN/A
4:50 pm64 °FPartly sunny.1 mph73%30.12 "HgN/A
4:20 pm66 °FPartly sunny.2 mph68%30.12 "HgN/A
3:50 pm64 °FPartly sunny.2 mph64%30.15 "HgN/A
3:20 pm64 °FPartly sunny.1 mph64%30.15 "HgN/A
Weather by CustomWeather, © 2019

See weather overview